Torna al catalogo

STARLINK-2506

AttivoComunicazioniVLEO
NORAD 48315·PAYLOAD·🇺🇸 United States

Lanciato Apr 29, 2021 da Cape Canaveral Space Force Station

Loading…

Prossimi Passaggi (prossime 24 ore)

TLE

AggiornatoSource: CelesTrak SupGP

Epoca: Sep 14, 2026, 20:58 UTC

1 48315C 21036AR  26257.87409722  .00003169  00000+0  10189-3 0  2571
2 48315  53.1567 298.5118 0001058  97.6773 237.5802 15.31703433    15

Traccia STARLINK-2506 in tempo reale con AllMySat

Download on the App Store